Regional Weather Roundup
Issued by NWS

Home | Current Version | Previous Version | Graphics & Text | Print | Product List | Glossary On
Versions: 1 2 3 4 5 6 7 8 9 10 11 12 13 14 15 16 17 18 19 20 21 22 23 24 25 26 27 28 29 30 31 32 33 34 35 36 37 38 39 40 41 42 43 44 45 46 47 48 49 50
000
ASUS43 KDTX 230001
RWRMI
MICHIGAN HOURLY REGIONAL WEATHER ROUNDUP
NATIONAL WEATHER SERVICE DETROIT/PONTIAC MI
800 PM EDT TUE APR 22 2014

NOTE: "FAIR" INDICATES FEW OR NO CLOUDS BELOW 12,000 FEET WITH NO
SIGNIFICANT WEATHER AND/OR OBSTRUCTION TO VISIBILITY.

MIZ047>049-052>055-059>063-066>070-074>076-081>083-230100-
SOUTHEAST LOWER MICHIGAN

CITY           SKY/WX    TMP DP  RH WIND       PRES   REMARKS
ADRIAN         CLOUDY    46  31  55 NW13G22   29.90R
6HR MIN TEMP:  46; 6HR MAX TEMP:  56;

ALMA           PTCLDY    43  27  54 NW17G25   29.92S
ANN ARBOR      CLOUDY    46  30  53 NW17G25   29.88R
BAD AXE        CLOUDY    39  33  79 NW16G25   29.85R WCI  31
6HR MIN TEMP:  39; 6HR MAX TEMP:  44;

CARO           LGT RAIN  42  35  77 NW18G26   29.87R
DETROIT CITY   CLOUDY    48  31  51 NW16G28   29.86R
6HR MIN TEMP:  48; 6HR MAX TEMP:  56;

DETROIT        CLOUDY    47  32  56 NW15G22   29.87R
6HR MIN TEMP:  47; 6HR MAX TEMP:  56;

FLINT          CLOUDY    44  30  57 NW22G29   29.90R
6HR MIN TEMP:  44; 6HR MAX TEMP:  53;

GROSSE ILE     CLOUDY    46  32  57 NW20G28   29.85R
HILLSDALE      MOCLDY    46  29  53 NW22G32   29.91R
HOWELL         CLOUDY    43  29  58 NW15G23   29.89R

CITY           SKY/WX    TMP DP  RH WIND       PRES   REMARKS
JACKSON        CLOUDY    44  29  55 NW16G23   29.91R
6HR MIN TEMP:  44; 6HR MAX TEMP:  53;

LAMBERTVILLE   CLOUDY    48  32  53 NW15G23   29.89R
LANSING        CLOUDY    45  28  51 NW17G26   29.93R
6HR MIN TEMP:  45; 6HR MAX TEMP:  51;

LAPEER         DRIZZLE   40  32  72 NW17G28   29.87R WCI  32
MASON          CLOUDY    44  30  58 NW20G26   29.91R
MONROE         CLOUDY    46  34  61 NW18G24   29.87R
MT. CLEMENS    CLOUDY    45  33  64 NW14G26   29.83R
6HR MIN TEMP:  45; 6HR MAX TEMP:  53;

PONTIAC        CLOUDY    43  30  60 NW17G26   29.86R
6HR MIN TEMP:  43; 6HR MAX TEMP:  50;

PORT HOPE        N/A     42  34  73 NW13G24   29.82R
6HR MIN TEMP:  41; 6HR MAX TEMP:  44;

PORT HURON     LGT RAIN  39  36  87 NW12G28   29.85R WCI  32
TRI CITIES     CLOUDY    42  30  62 NW23      29.90R
6HR MIN TEMP:  42; 6HR MAX TEMP:  48;

TROY           CLOUDY    45  31  59 W21G28    29.87R
SAGINAW HB     CLOUDY    43  30  61 NW18G30   29.89R
YPSILANTI      CLOUDY    49  31  49 NW22G29   29.88R
6HR MIN TEMP:  49; 6HR MAX TEMP:  58;

$$
MIZ043>046-050>051-056>058-064>065-071>073-077>080-230100-
SOUTHWEST LOWER MICHIGAN

CITY           SKY/WX    TMP DP  RH WIND       PRES   REMARKS
BATTLE CREEK   CLOUDY    46  28  49 NW13G26   29.94S
6HR MIN TEMP:  46; 6HR MAX TEMP:  53;

BENTON HARBOR  CLEAR     41  30  65 N10G18    29.99S
6HR MIN TEMP:  41; 6HR MAX TEMP:  45;

BIG RAPIDS     MOCLDY    41  27  56 N15G24    29.95R
6HR MIN TEMP:  40; 6HR MAX TEMP:  44;

COLDWATER      CLEAR     44  28  53 N15G24    29.93S
6HR MIN TEMP:  44; 6HR MAX TEMP:  52;

FREMONT        MOCLDY    42  26  53 N15       29.97S
HOLLAND        CLEAR     48  26  42 N8G21     29.98R
6HR MIN TEMP:  47; 6HR MAX TEMP:  51;

GRAND RAPIDS   MOCLDY    45  27  49 NW21G29   29.96R
6HR MIN TEMP:  45; 6HR MAX TEMP:  50;

IONIA          CLOUDY    45  28  52 NW16G22   29.93R
KALAMAZOO      PTCLDY    46  27  47 NW20G28   29.95R
6HR MIN TEMP:  46; 6HR MAX TEMP:  53;

LUDINGTON      CLEAR     39  29  67 N16       30.01R WCI  30
6HR MIN TEMP:  39; 6HR MAX TEMP:  46;

MARSHALL       CLOUDY    44  28  53 NW9G23    29.93R
MOUNT PLEASANT MOCLDY    42  30  62 NW9G20    29.92R
6HR MIN TEMP:  42; 6HR MAX TEMP:  45;

MUSKEGON       PTCLDY    45  26  47 N20G26    29.98S
6HR MIN TEMP:  45; 6HR MAX TEMP:  49;

SOUTH HAVEN    CLEAR     42  30  63 N9        29.98S
$$
MIZ016>042-230100-
NORTHERN LOWER MICHIGAN

CITY           SKY/WX    TMP DP  RH WIND       PRES   REMARKS
ALPENA         CLOUDY    38  30  73 NW13G21   29.87R WCI  30
6HR MIN TEMP:  38; 6HR MAX TEMP:  43; 6HR PCP: TRACE;

BEAVER ISLAND  CLOUDY    35  29  79 NW10      29.98R WCI  27
6HR MIN TEMP:  35; 6HR MAX TEMP:  39;

BELLAIRE       CLOUDY    36  29  76 NW9G18    29.98R WCI  29
6HR MIN TEMP:  36; 6HR MAX TEMP:  37;

CADILLAC       PTCLDY    35  28  75 NW18G31   29.95R WCI  24
CHARLEVOIX     CLOUDY    35  30  82 NW10      30.01R WCI  28
6HR MIN TEMP:  35; 6HR MAX TEMP:  38;

FRANKFORT      MOCLDY    37  28  72 N10G20    30.02R WCI  29
GAYLORD        CLOUDY    33  27  78 NW12G21   29.91R WCI  24
6HR MIN TEMP:  32; 6HR MAX TEMP:  34; 6HR PCP: TRACE;

GRAYLING       CLOUDY    34  30  86 NW13G21   29.93R WCI  25
6HR MIN TEMP:  34; 6HR MAX TEMP:  38;

HARBOR SPRINGS CLOUDY    37  29  74 W10       29.95R WCI  29
HOUGHTON LAKE  CLOUDY    35  28  75 NW16G33   29.92R WCI  25
6HR MIN TEMP:  35; 6HR MAX TEMP:  40; 6HR PCP: TRACE;

MANISTEE       CLEAR     39  27  60 N14G23    30.01R WCI  31
OSCODA         CLOUDY    41  32  69 NW20G32   29.84R
PELLSTON       CLOUDY    37  28  70 NW14      29.95R WCI  28
6HR MIN TEMP:  37; 6HR MAX TEMP:  41;

ROGERS CITY    CLOUDY    36  32  85 NW17G24   29.90R WCI  26
TRAVERSE CITY  MOCLDY    38  28  67 N15G23    29.99R WCI  29
6HR MIN TEMP:  38; 6HR MAX TEMP:  40; 6HR PCP: TRACE;

$$
MIZ007>008-015-230100-
EASTERN UPPER MICHIGAN

CITY           SKY/WX    TMP DP  RH WIND       PRES   REMARKS
KINROSS        CLOUDY    36  30  80 NW17      29.91R WCI  25
6HR MIN TEMP:  36; 6HR MAX TEMP:  39;

MACKINAC ISLAN CLOUDY    36  29  76 NW14G22   29.93R WCI  27
6HR MIN TEMP:  36; 6HR MAX TEMP:  40;

NEWBERRY       CLOUDY    33  28  80 N13G21    29.96S WCI  24
S. S. MARIE    CLOUDY    36  29  75 NW9       29.91R WCI  29
6HR MIN TEMP:  36; 6HR MAX TEMP:  40;

$$
MIZ004>006-011>014-085-230100-
CENTRAL UPPER MICHIGAN

CITY           SKY/WX    TMP DP  RH WIND       PRES   REMARKS
MANISTIQUE     CLOUDY    36  27  72 NW15G25   30.00R WCI  26
ESCANABA       CLOUDY    37  25  60 N13       30.05R WCI  29
6HR MIN TEMP:  37; 6HR MAX TEMP:  45;

MENOMINEE      CLOUDY    43  27  52 N14G22    30.04R
6HR MIN TEMP:  43; 6HR MAX TEMP:  46;

SAWYER-GWINN   MOCLDY    34  25  69 N14G22    30.04R WCI  24
$$
MIZ001>003-009>011-084-230100-
WESTERN UPPER MICHIGAN

CITY           SKY/WX    TMP DP  RH WIND       PRES   REMARKS
IRON MOUNTAIN  MOCLDY    39  25  57 N13       30.04R WCI  31
6HR MIN TEMP:  39; 6HR MAX TEMP:  42;

HOUGHTON       CLEAR     37  25  61 NW8       30.07R WCI  31
6HR MIN TEMP:  35; 6HR MAX TEMP:  38; 6HR PCP: TRACE;

COPPER HARBOR    N/A     35  28  75 N9        30.07R WCI  28
6HR MIN TEMP:  35; 6HR MAX TEMP:  36;

IRONWOOD       CLEAR     45  23  42 NW6       30.04S
6HR MIN TEMP:  39; 6HR MAX TEMP:  45;

$$

ABBREVIATIONS USED IN REMARKS
   TC - TEMPERATURE IN CELSIUS
  WCI - WIND CHILL INDEX
   HX - HEAT INDEX
  VSB - VISIBILITY




USA.gov is the U.S. government's official web portal to all federal, state and local government web resources and services.